User: anonymous   Login
Location: Halvern
(37.6252°N, 122.0525°W)
Time: 12:19:02
(UTC+00:00)
Language:

Cosmos 1538 Rocket - Orbit

View from above orbital plane
View from above orbital plane
View from above satellite
View from above satellite

Ground track
Ground track

The orbit data is extracted from the following two-line orbital elements,

1 14760U 84019B   24205.29355445  .00000579  00000-0  20496-3 0  9995
2 14760  74.0428  43.7152 0027754 344.5321  15.4981 14.36563556115597
Epoch (UTC): 23 July 2024 07:02:43
Eccentricity: 0.0027754
inclination: 74.0428°
perigee height: 750 km
apogee height: 790 km
right ascension of ascending node: 43.7152°
argument of perigee: 344.5321°
revolutions per day: 14.36563556
mean anomaly at epoch: 15.4981°
orbit number at epoch: 11559

The dashed part of the orbit path shows where the satellite is in the earth's shadow,  

DLR